User: anonymous   Login
Location: Unspecified
(0.0000°N, 0.0000°E)
Time: 19:35:15
(UTC+02:00)
Language:

Cosmos 2251 - Orbit

View from above orbital plane
View from above orbital plane
View from above satellite
View from above satellite

Ground track
Ground track

The orbit data is extracted from the following two-line orbital elements,

1 22675U 93036A   15142.19227883  .00000055  00000-0  29732-4 0  9993
2 22675 074.0376 157.5653 0023844 101.2526 327.8547 14.32426069145644
Epoch (UTC): 22 May 2015 04:36:52
Eccentricity: 0.0023844
inclination: 74.0376°
perigee height: 766 km
apogee height: 801 km
right ascension of ascending node: 157.5653°
argument of perigee: 101.2526°
revolutions per day: 14.32426069
mean anomaly at epoch: 327.8547°
orbit number at epoch: 14564

The dashed part of the orbit path shows where the satellite is in the earth's shadow,  

DLR